RH
34 35 27 19 13 7 6 4 3 3 6 5 3 2 2 2 2 2 2 2 2 6 8 7 10 15 23 35 53 70 98 60
33 22 20 13 7 5 4 3 4 4 4 3 3 3 3 3 2 2 2 2 3 5 6 6 10 14 20 29 51 71 64 57
32 20 19 8 5 4 4 4 4 4 4 4 4 4 4 4 3 2 2 3 4 5 6 10 15 16 16 18 40 65 74 67
20 14 9 6 5 4 4 4 4 4 5 6 6 5 5 4 4 3 3 3 3 3 5 9 14 12 15 18 23 50 72 75
15 10 7 5 5 5 4 5 5 6 7 6 6 5 5 6 7 8 7 6 8 7 4 6 6 8 10 12 19 45 77 78
11 8 6 6 6 5 5 5 6 7 7 6 6 8 11 15 20 22 25 22 27 30 21 23 34 39 30 13 28 58 76 88
9 8 7 7 6 6 6 6 8 7 7 7 9 15 23 30 31 34 35 36 36 38 37 46 48 46 31 14 42 75 70 75
9 9 8 7 7 6 6 8 8 8 8 10 14 23 30 22 15 21 37 38 42 48 50 45 50 55 51 29 52 77 65 60
12 12 11 9 7 7 8 9 9 8 8 11 21 24 22 17 10 13 35 48 49 52 62 68 61 57 55 55 29 24 39 67
22 20 17 12 9 9 10 10 10 9 8 12 16 17 11 6 6 7 21 30 44 50 57 64 69 67 73 63 61 25 18 37
56 29 24 14 11 11 11 11 10 11 16 22 19 14 11 6 6 7 9 9 12 35 41 50 57 59 66 65 65 59 29 20
59 45 25 14 12 12 13 12 12 12 16 26 17 16 16 11 8 7 7 9 11 11 13 34 40 35 41 46 50 48 45 43
53 52 29 18 15 14 15 14 13 12 17 26 19 18 20 13 10 9 10 13 16 17 17 16 16 24 37 32 34 39 37 39
69 83 61 26 21 20 18 17 15 14 23 33 27 22 23 17 20 26 20 19 23 23 22 20 18 15 15 14 22 26 26 23
95 90 75 42 33 26 24 22 18 18 32 37 37 29 26 25 42 42 39 28 24 24 20 19 14 16 14 12 11 14 19 21
99 96 85 87 73 43 35 26 22 29 37 38 39 32 29 48 51 40 24 26 25 20 15 14 16 31 33 32 25 14 10 14
100 100 99 98 93 42 35 28 32 43 47 44 42 40 50 56 57 42 27 23 15 14 17 14 9 9 16 19 20 23 21 16
100 100 94 93 84 56 42 32 41 49 50 53 57 67 77 56 29 22 16 14 12 10 9 8 8 8 9 10 15 18 18 19
99 98 94 82 60 46 34 36 49 53 51 58 78 74 34 26 17 16 13 12 11 9 8 9 11 16 20 22 24 25 26 25
96 100 94 73 50 37 40 46 54 61 73 58 39 27 21 18 22 15 16 12 10 8 9 14 17 16 16 17 19 20 19 18
Wind_Speed
27 33 31 30 30 31 31 32 34 34 32 31 32 33 35 37 39 41 43 44 44 42 40 42 42 41 43 41 40 43 42 44
34 34 30 30 29 31 32 33 31 30 30 31 32 34 36 38 39 42 44 44 43 43 42 39 38 39 40 43 42 40 40 41
38 33 32 30 30 31 31 30 30 30 30 31 33 34 36 38 40 41 42 43 43 43 42 39 39 40 40 40 41 44 42 41
36 31 30 30 31 30 29 29 29 29 30 32 33 35 38 40 40 40 40 39 39 39 39 41 42 42 42 39 38 40 44 44
32 29 30 31 30 28 28 28 28 30 31 32 35 37 39 38 36 36 37 38 39 39 38 39 40 40 40 40 37 38 41 44
29 29 30 29 29 28 28 28 29 30 32 34 36 36 36 35 34 33 33 34 36 34 34 34 34 35 37 36 34 38 42 44
30 30 30 30 29 29 28 28 29 30 32 32 33 32 32 31 31 32 32 32 34 35 35 34 34 31 31 34 35 36 37 42
30 30 29 30 29 28 28 28 29 30 31 31 29 29 29 29 31 33 33 31 32 33 35 36 35 33 31 35 36 39 41 41
30 29 29 29 28 27 27 28 28 30 29 27 26 26 28 31 33 32 32 30 31 32 33 33 34 36 35 33 38 41 41 41
27 27 29 30 28 27 28 29 30 31 31 28 28 28 30 34 33 32 29 30 29 29 32 34 31 33 34 36 33 38 41 42
31 30 30 29 29 29 29 30 31 31 30 30 31 31 30 31 32 30 29 30 31 29 29 29 30 31 33 33 35 33 37 43
29 28 29 30 31 31 30 31 32 32 32 32 31 31 31 30 31 32 31 29 28 31 31 31 30 31 33 34 35 34 34 33
32 32 29 31 32 31 30 31 32 33 33 34 31 32 33 31 30 32 31 31 31 31 32 34 35 35 35 36 36 38 38 37
35 33 31 31 31 30 31 32 32 34 34 35 33 34 35 34 29 31 34 36 36 36 37 37 38 41 41 41 39 40 42 41
41 36 38 31 30 29 30 32 34 33 35 36 35 36 36 35 34 36 39 40 41 42 43 43 43 43 45 47 47 45 45 44
42 37 37 37 33 31 32 33 33 34 34 36 37 37 37 36 39 41 41 43 45 47 48 48 47 45 45 47 48 50 51 50
45 36 39 35 31 30 33 33 34 35 36 35 37 38 39 42 44 44 45 47 49 49 49 49 50 50 50 51 54 54 53 54
37 26 23 26 27 32 33 34 36 36 38 39 40 42 43 40 42 44 46 47 47 47 49 50 51 51 51 51 53 55 57 59
32 34 28 24 28 31 34 34 34 37 39 40 43 42 41 42 44 44 44 46 49 51 51 51 52 53 54 55 57 58 59 61
34 27 24 27 29 29 31 33 35 37 41 39 39 40 43 43 43 43 47 50 53 54 55 55 56 57 57 57 58 60 62 64
Wind_Direction
303 303 296 293 291 289 287 289 288 287 288 288 289 290 291 291 289 288 287 284 280 275 272 271 269 266 264 263 261 261 264 269
307 304 298 296 291 290 291 290 289 289 289 292 294 293 292 292 291 289 286 281 277 272 272 268 264 264 264 260 256 258 260 262
302 296 289 290 290 291 290 290 291 291 293 295 295 296 298 297 296 291 287 281 275 270 267 264 262 263 263 261 257 255 257 258
298 291 291 291 292 291 291 291 290 292 295 298 302 302 301 300 298 292 286 280 275 271 264 261 263 266 264 260 257 255 254 253
291 291 292 292 291 292 294 293 295 296 299 301 303 305 304 304 301 294 284 276 273 271 265 263 263 265 264 260 257 254 252 252
289 290 291 293 294 295 294 293 295 297 302 305 307 308 307 307 305 299 292 281 279 275 268 263 262 267 267 256 255 254 251 249
291 292 293 293 297 296 293 291 296 301 305 307 308 308 309 310 311 308 301 290 281 276 272 268 261 263 265 255 249 249 256 256
293 293 295 296 294 293 292 296 300 303 305 307 306 308 306 306 307 309 305 296 287 282 276 267 264 265 264 256 247 248 258 261
290 290 292 292 292 291 293 296 298 300 301 303 303 302 300 300 301 301 306 303 293 289 286 279 271 272 269 266 254 248 252 255
287 291 295 293 293 294 295 296 299 302 305 303 304 302 302 302 302 299 298 300 300 295 286 283 278 273 273 270 270 255 249 252
296 296 295 295 293 293 296 299 302 303 302 300 301 301 302 301 301 301 299 298 300 296 291 285 284 279 272 271 270 271 258 251
293 292 295 295 292 293 295 298 300 300 299 295 296 298 299 300 298 298 298 298 298 297 296 291 286 282 275 271 272 271 268 262
290 286 289 289 289 291 295 296 296 296 291 289 295 297 297 297 297 297 296 296 296 295 295 296 292 285 279 275 268 268 267 265
288 285 286 291 290 291 292 292 295 294 291 293 295 294 293 294 295 297 297 296 294 294 293 291 289 289 285 278 272 269 266 264
281 271 278 284 288 290 293 294 293 293 292 293 295 295 292 291 297 300 298 295 293 293 292 290 288 284 281 279 276 272 268 266
275 275 279 276 285 289 291 292 292 292 292 297 297 295 293 295 300 301 300 298 297 295 294 292 289 284 281 278 274 271 267 264
275 270 277 275 275 291 293 294 296 296 299 299 298 296 296 298 299 300 300 299 298 296 294 291 288 284 280 277 275 272 269 264
272 279 297 284 281 285 290 293 296 300 299 299 299 300 301 304 303 301 300 299 297 297 294 291 289 286 281 276 272 269 269 267
294 311 317 294 283 287 292 297 299 300 294 297 302 304 305 305 304 304 301 300 298 297 296 293 288 284 280 277 273 270 266 264
316 309 294 285 293 299 301 299 299 301 301 304 305 306 307 307 306 303 302 301 300 299 297 294 290 287 284 281 278 275 271 267